Location: Unspecified
(0.0000°N, 0.0000°E)
Time: 21:24:02
(UTC+00:00)

Tiros 1 despin weight - Pass Details

Date: 01 June 2022
Orbit: 591 x 639 km, 48.2° (Epoch: 25 June)

Event Time Altitude Azimuth Distance (km) Brightness Sun altitude
Rises 12:08:29 0° 210° (SSW) 2,934 ? 67.8°
Reaches altitude 10° 12:10:52 10° 205° (SSW) 2,024 ? 67.7°
Maximum altitude 12:15:24 51° 129° (SE) 803 ? 67.5°
Drops below altitude 10° 12:19:53 10° 53° (NE) 2,006 ? 67.3°
Sets 12:22:15 0° 48° (NE) 2,906 ? 67.1°
